Home > Weather > Neuchâtel > Past weeks

Flag for Switzerland Weather for the Past 2 Weeks in Neuchâtel, Neuchâtel, Switzerland

Now
32 °F

Clear.


Feels Like: 32 °F
Forecast: 39 / 47 °F
Wind: 1 mph from North

Location: Les Eplatures

Current Time: Apr 30, 2016 at 4:16:55 AM

Latest Report: Apr 30, 2016 at 3:20 AM


Visibility: N/A

Pressure: 30.01 "Hg

Humidity: 87%

Dew Point: 28 °F

Location of NeuchâtelLocation

Historic Weather in Neuchâtel — Graph

°F

Neuchâtel Temperature Yesterday

Maximum temperature yesterday: 50 °F (at 4:50 PM)
Minimum temperature yesterday: 27 °F (at 3:20 AM)
Average temperature yesterday: 38 °F

High & Low Weather Summary for the Past Weeks

 TemperatureHumidityPressure
High64 °F (Apr 21, 1:20 PM)100% (Apr 15, 9:50 AM)30.27 "Hg (Apr 15, 9:50 AM)
Low21 °F (Apr 28, 5:20 AM)29% (Apr 20, 5:50 PM)29.65 "Hg (Apr 16, 8:20 PM)
Average40 °F81%29.95 "Hg
* Reported Apr 15 2:20 AM — Apr 30 2:20 AM, Neuchâtel, Weather by CustomWeather, © 2016

Note: Actual official high and low records may vary slightly from our data, if they occured in-between our weather recording intervals... More about our weather records

Advertising

Neuchâtel Weather History for the Previous 24 Hours

Scroll right to see more
 ConditionsComfort  
Time TempWeatherWind HumidityBarometerVisibility
2:20 AM
Sat, Apr 30
32 °FClear.No wind87%30.01 "Hg10 mi
1:50 AM30 °FClear.1 mph86%30.01 "Hg10 mi
1:20 AM32 °FClear.No wind87%30.01 "Hg10 mi
12:50 AM32 °FClear.1 mph87%30.04 "Hg10 mi
12:20 AM34 °FClear.3 mph81%30.04 "Hg10 mi
11:50 PM
Fri, Apr 29
34 °FClear.No wind87%30.01 "Hg10 mi
11:20 PM34 °FClear.No wind87%30.04 "Hg10 mi
10:50 PM36 °FClear.1 mph81%30.04 "Hg10 mi
10:20 PM36 °FSunny.1 mph81%30.04 "Hg10 mi
9:50 PM36 °FSunny.1 mph81%30.04 "Hg10 mi
9:20 PM37 °FSunny.1 mph81%30.04 "Hg10 mi
8:50 PM41 °FSunny.1 mph70%30.01 "Hg10 mi
8:20 PM43 °FSunny.1 mph66%30.01 "Hg10 mi
7:50 PM45 °FSunny.2 mph66%30.01 "Hg10 mi
7:20 PM48 °FCool.3 mph54%30.01 "HgN/A
6:50 PM50 °FClear.6 mph50%30.01 "HgN/A
6:20 PM50 °FCool.5 mph50%30.01 "HgN/A
5:50 PM50 °FPassing clouds.6 mph50%30.01 "HgN/A
5:20 PM50 °FScattered clouds.3 mph47%30.01 "HgN/A
4:50 PM50 °FScattered clouds.7 mph50%30.01 "HgN/A
4:20 PM48 °FScattered clouds.6 mph50%30.01 "HgN/A
3:50 PM48 °FScattered clouds.5 mph54%30.01 "HgN/A
3:20 PM48 °FScattered clouds.7 mph50%30.01 "HgN/A
2:50 PM48 °FScattered clouds.6 mph50%30.04 "HgN/A
2:20 PM48 °FScattered clouds.5 mph54%30.01 "HgN/A
1:50 PM46 °FScattered clouds.6 mph53%30.01 "HgN/A
1:20 PM45 °FScattered clouds.2 mph53%30.04 "HgN/A
12:50 PM46 °FScattered clouds.8 mph53%30.04 "HgN/A
12:20 PM46 °FPartly sunny.7 mph53%30.04 "HgN/A
11:50 AM45 °FScattered clouds.7 mph61%30.04 "HgN/A
11:20 AM41 °FScattered clouds.6 mph61%30.04 "HgN/A
10:50 AM41 °FScattered clouds.8 mph57%30.04 "HgN/A
10:20 AM41 °FScattered clouds.5 mph61%30.04 "HgN/A
9:50 AM41 °FPassing clouds.6 mph66%30.04 "HgN/A
9:20 AM39 °FPassing clouds.5 mph70%30.04 "HgN/A
8:50 AM36 °FPassing clouds.1 mph81%30.04 "HgN/A
8:20 AM32 °FSunny.1 mph93%30.04 "Hg10 mi
7:50 AM30 °FClear.1 mph93%30.04 "Hg10 mi
7:20 AM28 °FPassing clouds.2 mph93%30.01 "HgN/A
6:50 AM28 °FPassing clouds.1 mph93%30.01 "HgN/A
6:20 AM28 °FOvercast.1 mph93%30.01 "HgN/A
5:50 AM27 °FPassing clouds.1 mph93%30.01 "HgN/A
5:20 AM27 °FPassing clouds.2 mph93%30.01 "HgN/A
4:20 AM28 °FPassing clouds.1 mph93%30.01 "HgN/A
Weather by CustomWeather, © 2016

See weather overviewHow to use our weather pages